Regional Weather Roundup
Issued by NWS

Home | Current Version | Previous Version | Graphics & Text | Print | Product List | Glossary Off
Versions: 1 2 3 4 5 6 7 8 9 10 11 12 13 14 15 16 17 18 19 20 21 22 23 24 25 26 27 28 29 30 31 32 33 34 35 36 37 38 39 40 41 42 43 44 45 46 47 48 49 50

000
ASUS43 KFSD 262010
RWRSD

WEATHER ROUNDUP FOR SOUTH DAKOTA
NATIONAL WEATHER SERVICE SIOUX FALLS SD
300 PM CDT TUE MAY 26 2015

NOTE: "FAIR" INDICATES FEW OR NO CLOUDS BELOW 12,000 FEET WITH NO
SIGNIFICANT WEATHER AND/OR OBSTRUCTIONS TO VISIBILITY.


SDZ001>005-009-010-012>017-262100-
NORTHWEST AND NORTH CENTRAL SOUTH DAKOTA

CITY           SKY/WX    TMP DP  RH WIND       PRES   REMARKS
BUFFALO          N/A     70  47  43 SE13      29.90S
FAITH            N/A     70  47  43 N3        29.95S
MOBRIDGE       SUNNY     79  50  36 VRB6      29.87F
$$

SDZ012>016-024>037-041>051-057-063-072>074-262100-
SOUTHWEST AND SOUTH CENTRAL SOUTH DAKOTA

CITY           SKY/WX    TMP DP  RH WIND       PRES   REMARKS
RAPID CTY ARPT MOSUNNY   66  48  52 S12       29.97F
PIERRE         MOSUNNY   76  51  41 NW12      29.89F
CUSTER         CLOUDY    54  49  83 NE6       30.04S
ELLSWORTH AFB  PTSUNNY   66  49  53 S12       29.97S
PHILIP         MOSUNNY   74  50  42 N7        29.94F
PINE RIDGE     PTSUNNY   67  45  45 CALM      29.98F
SPEARFISH      FAIR      59  54  82 S8        30.00S
WINNER         FAIR      75  50  41 NW14      29.92F
$$

SDZ004>011-016>023-039-040-262100-
NORTHEAST SOUTH DAKOTA

CITY           SKY/WX    TMP DP  RH WIND       PRES   REMARKS
ABERDEEN       PTSUNNY   76  54  46 VRB3      29.84F
WATERTOWN      CLOUDY    68  52  56 N7        29.85F
BROOKINGS      CLOUDY    64  52  63 N12       29.84F
SISSETON         N/A     74  53  48 VRB5      29.82F
$$

SDZ017-020-022-023-036>040-048>070-262100-
SOUTHEAST SOUTH DAKOTA

CITY           SKY/WX    TMP DP  RH WIND       PRES   REMARKS
SIOUX FALLS    CLOUDY    64  55  72 N9        29.83S
HURON          MOSUNNY   76  50  40 N13G18    29.84S
CHAMBERLAIN    PTSUNNY   73  50  43 N9G18     29.89F
MITCHELL       PTSUNNY   71  54  54 NE7       29.86F
YANKTON        PTSUNNY   70  52  52 N18       29.83S
$$

ABBREVIATIONS USED IN REMARKS
   TC - TEMPERATURE IN CELSIUS
  WCI - WIND CHILL INDEX
   HX - HEAT INDEX
  VSB - VISIBILITY



USA.gov is the U.S. government's official web portal to all federal, state and local government web resources and services.